Theta_e
316 317 317 317 317 317 317 317 317 316 316 315 314 314 314 314 312 302 295 300 305 311 309 298 295 293 293 289 289 285 280 277 280 280 281 283 283 285 286 284 285 286 284 287 290
316 317 318 318 318 318 318 317 316 316 316 316 314 314 314 314 302 298 304 309 309 309 297 293 291 293 289 288 288 283 278 281 282 281 281 283 283 283 282 284 284 283 287 288 289
316 316 317 318 318 318 318 317 316 316 316 315 315 314 313 309 296 297 306 307 307 305 298 296 294 292 287 287 286 284 281 284 284 285 285 284 282 283 281 281 284 284 286 287 287
316 316 316 317 318 318 318 317 316 315 315 315 315 313 314 301 286 297 305 307 307 303 297 295 292 287 286 284 287 282 285 285 287 288 285 283 283 283 283 283 286 286 287 286 286
316 316 316 317 317 318 318 316 315 314 313 314 314 312 304 292 292 300 307 303 301 298 294 292 289 288 284 285 285 283 284 287 286 286 284 285 284 283 283 285 285 287 287 285 285
317 317 316 317 317 318 318 315 313 312 312 312 312 311 296 286 298 299 298 299 298 296 293 292 289 289 287 285 284 286 286 286 287 286 286 284 282 283 283 283 284 285 285 285 285
318 317 317 317 318 318 317 314 311 311 311 312 311 306 295 290 295 297 298 296 297 296 292 293 293 289 288 284 288 286 282 285 285 286 284 284 282 281 283 284 284 283 283 284 285
318 317 317 318 318 318 317 314 310 310 311 311 310 300 286 296 294 296 297 295 297 297 295 295 294 290 287 288 286 281 281 278 285 285 284 283 278 284 283 283 282 282 281 282 284
318 317 318 317 318 317 317 314 309 309 309 309 297 292 286 300 292 295 295 293 294 295 295 297 293 287 286 281 278 280 275 278 283 286 282 282 278 285 283 282 282 282 281 281 281
314 314 315 315 317 318 316 308 308 306 304 303 296 289 291 288 292 294 294 295 292 291 291 289 286 281 280 278 272 276 277 279 280 281 281 280 279 284 284 282 282 281 281 280 280
312 312 313 313 315 317 303 295 294 292 292 290 288 287 289 291 294 292 294 292 291 288 281 285 280 278 279 281 281 279 279 278 280 281 279 279 278 282 283 281 281 280 279 279 279
311 312 312 313 315 310 296 290 290 290 288 292 290 289 291 291 286 290 294 286 285 280 283 281 278 283 285 284 282 280 279 278 280 281 279 277 277 281 280 279 279 279 279 279 276
309 310 311 314 314 298 293 292 297 295 287 290 288 288 288 289 285 286 289 287 283 281 281 278 282 286 284 281 280 279 279 277 277 279 277 276 274 275 279 279 279 279 278 277 276
307 308 310 313 303 294 291 297 299 296 281 285 284 287 289 288 283 290 290 287 284 280 280 280 284 283 281 280 281 276 281 280 278 274 270 277 267 275 276 278 279 279 276 275 275
310 310 309 312 302 296 296 298 298 293 272 284 283 290 288 284 284 285 289 286 280 281 280 278 280 280 278 280 282 277 281 279 278 272 268 273 265 273 275 276 277 278 277 275 274
309 307 309 303 296 294 297 295 294 281 271 281 283 282 282 283 283 285 286 287 286 281 281 281 284 281 281 282 282 282 280 279 276 272 265 269 268 272 272 272 275 274 275 275 276
308 306 303 301 294 296 295 293 279 275 284 281 280 282 281 280 282 282 282 279 280 279 276 280 280 281 284 281 282 281 277 269 266 264 267 271 269 274 273 273 272 272 274 272 274
308 304 300 298 299 296 295 285 275 273 276 285 283 285 279 281 281 282 279 280 282 282 278 273 273 279 283 281 278 278 276 271 262 263 266 273 265 273 272 268 265 268 266 273 274
308 301 298 298 297 296 288 271 272 276 284 283 284 279 282 281 279 279 280 278 280 282 277 274 275 281 281 281 280 278 275 275 264 262 263 265 271 276 276 271 268 269 274 273 272
302 297 296 296 297 296 286 277 277 287 286 286 278 284 281 280 277 277 277 280 280 283 284 280 274 280 280 282 280 278 279 270 268 262 260 265 264 268 270 270 270 269 273 272 272
300 291 294 298 299 292 281 272 285 287 288 284 283 283 282 280 280 275 278 281 283 283 284 280 277 277 279 275 275 275 272 273 271 266 260 260 267 269 269 268 269 272 273 269 269
298 284 292 298 287 285 284 285 288 285 286 285 283 283 279 278 277 277 277 281 285 284 280 282 279 273 277 278 278 277 269 270 266 263 259 262 268 265 265 262 263 271 273 269 269
291 289 295 296 278 281 284 284 285 284 284 283 283 283 279 277 277 277 279 283 285 283 281 282 278 273 275 276 276 273 273 270 267 266 263 264 269 263 260 266 270 269 268 268 269
288 283 287 289 287 279 278 278 283 286 285 286 285 285 280 274 277 278 279 282 284 284 287 284 278 276 274 275 273 266 268 271 271 261 260 265 268 278 274 268 273 268 266 262 262
291 277 277 275 283 284 281 283 282 281 285 286 282 282 279 276 277 278 278 281 283 285 284 281 274 276 277 278 276 270 270 270 269 265 269 264 264 273 274 272 269 260 261 262 263
289 280 286 283 285 284 284 282 282 284 283 282 280 280 282 280 280 275 278 279 278 281 280 280 274 276 274 275 268 266 268 269 272 263 265 268 272 277 265 255 261 266 260 261 260
294 292 287 284 283 282 282 283 283 283 285 287 284 283 281 282 282 282 282 282 281 279 279 277 274 274 271 273 271 268 267 264 263 261 270 266 272 256 268 264 264 266 260 264 263
Wind_Speed
8 9 10 10 11 11 11 11 11 10 9 9 9 9 8 9 9 2 1 2 4 9 9 6 1 3 2 3 3 4 4 3 5 6 3 2 4 2 1 2 2 2 1 3 7
8 9 9 10 11 12 12 12 12 11 10 10 9 9 8 8 3 2 1 5 5 6 4 6 3 5 3 2 2 5 4 8 3 3 4 4 2 3 1 4 4 1 1 3 5
7 8 9 10 10 11 12 12 12 11 9 9 9 8 8 6 3 1 2 4 4 4 1 0 1 2 1 1 2 3 5 3 3 3 4 3 2 2 3 6 9 10 8 7 5
6 7 9 10 10 11 12 13 12 11 10 9 7 6 6 2 4 1 3 4 4 3 2 2 1 3 2 3 2 2 5 3 2 3 3 3 2 5 9 8 1 8 9 8 8
5 7 8 10 11 12 14 13 12 11 10 7 4 4 2 2 4 1 3 4 3 1 2 1 2 2 3 2 1 3 2 2 2 3 5 2 8 8 9 9 3 5 8 10 8
6 7 8 10 11 12 13 13 11 10 7 3 1 2 1 2 0 2 3 3 4 2 2 2 3 2 2 2 4 2 3 6 6 5 4 5 3 4 4 2 7 7 9 8 9
6 7 9 10 11 12 13 12 10 6 3 1 1 1 1 5 2 2 3 2 3 2 1 1 1 2 3 1 0 1 6 6 6 4 5 4 7 12 4 3 6 9 8 8 9
6 7 8 10 12 13 14 12 5 3 2 2 2 1 4 1 1 3 2 3 3 3 2 1 1 2 1 0 2 1 1 4 1 5 1 2 9 4 4 7 10 9 9 8 6
7 9 11 12 11 13 14 10 0 1 2 2 2 2 5 1 0 1 2 1 2 2 3 1 2 1 2 3 4 2 4 4 7 4 3 4 8 7 5 6 10 9 9 8 5
10 11 12 13 12 13 14 1 1 3 2 1 1 1 2 1 0 1 1 1 1 1 3 2 4 2 2 4 6 6 4 4 5 1 1 6 17 21 9 8 13 10 9 8 7
11 12 13 14 12 14 5 2 4 2 3 3 1 2 1 1 1 1 2 1 1 3 2 1 1 8 9 7 1 1 3 5 2 2 2 9 12 22 11 8 10 9 8 9 8
12 14 15 15 10 9 3 5 2 1 5 1 2 1 1 1 2 2 1 1 1 3 3 2 8 5 5 4 4 3 3 5 4 3 2 6 16 23 9 5 4 6 8 8 5
13 14 15 15 10 5 4 2 2 1 1 4 0 0 0 1 2 1 1 1 3 2 5 6 2 3 3 2 3 4 4 2 5 6 2 8 10 6 3 2 2 2 1 4 8
14 14 15 13 3 2 3 3 3 2 4 2 0 1 1 1 2 1 2 1 2 3 3 6 3 4 2 4 6 2 2 3 0 5 4 5 9 9 4 7 4 5 4 5 6
18 10 12 8 1 3 1 3 2 1 4 1 1 0 0 1 2 2 2 2 3 2 5 6 2 3 3 5 4 5 1 3 3 3 5 1 3 11 5 7 4 6 7 7 5
14 4 6 2 3 1 3 1 2 7 8 1 1 1 2 2 1 2 1 1 0 2 3 7 3 1 3 2 3 5 3 4 5 3 2 2 4 9 4 6 3 1 4 6 6
10 9 4 2 3 2 1 2 6 4 4 2 2 1 2 3 1 2 2 2 2 4 3 2 2 2 5 1 3 5 3 4 6 3 6 2 1 12 7 5 5 5 6 4 5
10 6 5 2 1 0 2 5 3 4 5 1 1 3 2 3 1 3 2 3 1 0 3 1 4 3 2 2 3 4 5 5 7 3 5 1 8 9 6 4 5 5 4 6 6
13 1 0 2 2 1 6 3 9 6 1 2 2 0 1 2 1 3 2 1 2 4 2 2 4 2 3 1 2 1 3 2 8 2 3 3 8 10 3 5 4 7 5 8 6
2 0 2 5 2 1 4 5 2 2 1 2 1 1 1 2 3 2 2 1 3 2 2 1 5 2 2 1 3 2 2 2 3 0 4 5 7 8 5 4 5 6 7 7 4
2 1 2 3 1 3 4 7 3 3 1 1 1 2 3 2 1 3 3 1 1 1 2 3 2 1 1 3 3 2 2 2 3 4 6 3 10 9 8 6 6 8 6 6 5
2 2 3 2 2 1 3 4 2 2 2 1 0 0 3 1 2 3 4 3 2 2 2 2 3 4 4 3 2 2 5 3 6 5 1 4 12 3 5 5 3 11 8 4 3
2 2 1 1 4 3 2 3 2 3 2 2 3 3 2 2 2 3 2 3 4 2 2 2 3 3 2 2 1 3 3 3 4 3 6 5 10 2 3 6 7 9 6 4 3
1 2 2 2 1 6 3 4 4 1 1 3 1 3 3 1 2 4 3 1 4 2 3 1 3 5 3 1 2 1 2 3 4 4 4 10 11 15 9 7 9 6 5 5 5
2 5 5 3 4 3 2 1 6 3 2 2 1 4 5 1 2 4 3 3 2 2 2 2 4 4 8 11 6 6 8 8 10 7 8 5 8 13 13 9 7 5 6 6 6
2 4 1 1 3 5 6 4 5 3 6 3 4 3 6 5 5 3 3 3 3 1 3 2 4 2 5 3 2 7 9 12 14 3 11 10 25 14 5 4 6 8 5 6 6
1 0 3 2 4 3 4 5 5 7 3 2 6 2 4 3 1 2 3 3 2 2 2 3 2 3 5 1 6 7 8 7 4 3 8 7 13 4 6 6 6 6 5 7 7
Wind_Direction
22 15 16 11 6 359 354 348 346 341 337 331 329 326 328 333 331 338 314 271 313 325 331 287 3 1 49 73 69 133 70 222 247 168 195 179 167 200 293 192 203 356 156 139 131
16 9 10 10 4 355 350 345 341 334 331 324 320 323 327 341 340 269 163 313 323 342 30 29 24 353 43 69 29 95 139 217 216 179 183 174 199 189 178 212 235 180 314 148 141
10 4 1 3 358 354 347 343 337 328 321 318 314 321 327 333 316 218 312 317 329 24 112 354 321 8 70 107 176 163 205 221 234 171 152 182 270 227 195 242 220 207 185 193 181
356 355 352 350 351 348 345 340 334 326 317 309 303 316 326 334 308 281 310 323 322 345 332 49 72 107 149 227 179 207 234 236 230 172 139 200 177 263 204 225 174 203 179 169 190
337 339 341 341 341 342 345 339 333 323 313 305 288 322 351 341 275 316 325 343 334 344 54 95 138 136 193 213 191 217 266 268 189 185 242 170 227 232 250 240 236 202 158 182 195
323 326 332 333 334 334 340 337 335 327 317 297 280 6 62 278 80 9 8 353 10 36 30 46 161 159 171 209 182 325 296 274 271 233 232 201 252 126 264 203 210 195 205 204 196
309 316 323 326 327 329 334 337 336 342 352 116 122 67 81 240 7 23 18 20 357 18 81 35 77 161 141 202 59 348 314 309 230 214 215 178 274 229 184 151 220 222 223 221 218
287 309 314 318 324 327 332 330 327 3 56 108 92 96 238 349 294 32 10 359 5 17 75 110 26 107 144 132 18 342 86 333 96 144 196 148 264 259 167 170 229 227 239 235 219
355 342 328 321 322 324 329 328 216 100 93 103 71 105 285 354 28 119 31 315 352 358 358 331 34 96 46 98 354 356 247 214 313 186 130 191 268 260 159 194 242 237 236 230 203
6 352 343 338 326 324 330 314 51 77 80 95 29 8 334 239 251 356 352 89 97 356 7 61 48 92 62 123 223 202 222 238 244 337 241 259 260 273 255 220 245 241 234 226 205
355 342 338 337 325 327 359 35 17 349 42 226 156 264 171 293 319 341 360 51 65 82 221 318 63 223 218 209 36 108 216 242 243 358 297 250 271 275 279 243 259 252 237 227 210
351 341 332 330 322 337 69 72 77 216 314 305 254 271 60 158 323 263 2 163 141 227 139 30 239 226 226 188 212 212 253 262 277 153 246 308 288 279 278 246 225 265 245 228 157
335 335 330 323 329 31 74 92 149 36 111 312 304 265 307 92 254 274 56 102 211 244 198 190 216 110 168 168 186 218 205 225 237 312 171 320 290 322 288 267 252 308 297 132 175
322 315 318 325 84 160 49 319 136 111 58 244 178 4 37 90 269 2 33 88 281 253 237 240 270 191 205 242 162 257 111 108 274 42 265 36 281 300 316 293 235 221 165 168 183
310 282 306 343 88 85 72 341 109 58 2 227 174 276 100 188 313 27 340 81 219 277 84 263 175 183 187 224 157 215 108 109 99 92 34 17 67 270 6 296 272 234 209 214 220
349 310 306 59 61 69 6 15 36 44 254 124 142 230 24 126 36 4 38 359 70 301 218 245 317 260 224 60 103 137 83 66 56 85 358 249 131 274 219 215 293 256 222 211 240
348 1 39 36 135 313 70 73 37 163 308 273 193 84 67 311 9 31 4 315 247 328 348 289 195 74 20 33 42 64 55 324 342 10 223 257 5 250 263 235 221 245 230 237 283
338 14 23 57 59 75 91 59 150 240 237 349 222 329 181 35 24 340 334 299 97 9 299 30 305 12 72 87 310 176 170 164 215 225 277 19 239 255 217 245 242 266 274 291 276
327 27 22 356 359 123 81 81 207 211 320 350 62 95 343 59 115 348 222 258 102 183 192 311 272 93 66 118 261 109 217 130 102 56 37 244 282 290 255 308 310 275 259 267 293
306 30 337 327 333 86 86 244 214 46 300 268 151 81 291 285 7 7 232 241 161 85 133 271 287 55 78 248 106 223 159 56 8 71 301 283 277 244 308 285 307 299 290 293 289
228 165 259 325 290 56 189 223 225 90 326 212 210 175 222 285 232 262 258 344 186 82 353 149 213 184 207 182 164 181 270 62 112 112 165 290 272 214 214 217 247 273 290 279 281
255 247 283 326 109 261 189 184 131 154 65 254 90 86 187 171 269 259 243 224 161 160 191 183 237 264 238 143 175 238 201 154 120 267 88 145 271 209 223 236 229 278 296 273 245
239 163 316 43 169 226 137 166 167 150 158 215 197 175 135 175 274 230 269 139 167 202 175 155 225 288 209 145 170 220 193 141 116 84 206 139 261 303 293 293 266 272 294 292 279
100 196 351 51 234 140 163 234 196 105 158 197 180 111 97 1 263 295 292 177 181 210 187 171 246 243 259 203 111 208 223 177 132 128 191 233 289 287 298 299 317 304 286 280 281
211 228 190 203 240 184 137 211 203 196 220 180 189 208 165 212 263 251 264 288 200 236 204 230 257 227 262 266 223 223 220 190 202 195 202 257 227 276 286 284 283 287 288 294 285
194 147 61 261 122 137 184 208 189 178 167 168 216 269 185 215 204 237 197 206 252 187 201 184 277 288 273 286 188 259 220 217 226 224 277 292 287 285 300 297 286 269 263 271 261
263 206 140 171 141 141 205 178 212 147 237 134 199 199 225 249 19 327 295 293 266 215 229 209 280 330 268 261 282 295 224 175 193 224 183 194 232 351 301 299 264 281 218 252 252